Погода в Осташкове

Россия / Тверская область     57°08′17″N   35°08′07″E
темп.,
°C
ветер,
м/с
пор.,
м/с
влажн.,
%
обл.,
%
осадки,
мм/ч
давл.,
гПа
погр.,
м
13 апреля, вт
вт1300:00+9юв3981100 0.0 1026281
03:00+7юв3893100 0.0 1025208
06:00+7юв3797100 0.0 1023194
09:00+10ююв3682100 0.0 1022311
12:00+16ю4860100 0.0 1022789
15:00+19ююз5949100 0.0 10211468
18:00+17ю265759 0.0 1020182
21:00+12ююв3137299 0.1 1020292
14 апреля, ср
ср1400:00+11ююв3137521 0.0 1020350
03:00+9ююв388383 0.0 1019151
06:00+9ююв2882100 0.0 1018180
09:00+13ю496479 0.0 1018419
12:00+17ю595670 0.0 10171652
15:00+18юз474873 0.3 10161715
18:00+15юз236699 1.0 1016114
21:00+12сз2486100 2.6 101887
15 апреля, чт
чт1500:00+11ссв379095 0.3 1017207
03:00+9ссв399788 0.3 1018289
06:00+8св4996100 0.3 1018421
09:00+9св4787100 0.3 1019490
12:00+10св4681100 0.0 1020633
15:00+10св4881100 0.0 1020749
18:00+8св51085100 0.0 1021585
21:00+6св51185100 0.0 1022496
16 апреля, пт
пт1600:00+5св5129099 0.0 1022492
03:00+5св51389100 0.0 1023519
06:00+3св5128826 0.0 1023425
09:00+6св5107414 0.0 1024513
12:00+10св685634 0.0 1024902
15:00+11св684535 0.0 10251145
18:00+9св59465 0.0 1026919
21:00+5св5135799 0.0 1028538
17 апреля, сб
сб1700:00+4св4136698 0.0 1029434
03:00+2св4127450 0.0 1030329
06:00+1св412785 0.0 1031307
09:00+6всв510565 0.0 1032639
12:00+9всв57425 0.0 10321406
15:00+10всв57435 0.0 10321587
18:00+9св46474 0.0 10331326
21:00+4св311591 0.0 1034338